Location: Dodge City Community College Clyde Tombaugh Astronomy Center
(37.7756°N, 100.0412°W)
Time: 04:38:23
(UTC+00:00)

Cosmos 2228 Rocket - Pass Details

Date: 07 July 2022
Orbit: 618 x 651 km, 82.5° (Epoch: 07 August)

Event Time Altitude Azimuth Distance (km) Brightness Sun altitude
Rises 10:18:50 0° 344° (NNW) 2,923 6.9 -11.5°
Reaches altitude 10° 10:21:10 10° 337° (NNW) 2,017 5.9 -11.2°
Maximum altitude 10:25:21 41° 268° (W) 931 3.6 -10.6°
Drops below altitude 10° 10:29:33 10° 199° (SSW) 2,022 5.2 -9.9°
Enters shadow 10:30:02 - 197° (SSW) 2,207 5.4 -9.8°
